Location: Berg
(48.5667°N, 13.9833°E)
Time: 17:23:17
(UTC+00:00)

Cosmos 1697 Rocket - Pass Details

Date: 09 April 2020
Orbit: 831 x 845 km, 71.0° (Epoch: 28 May)

Event Time Altitude Azimuth Distance (km) Brightness Sun altitude
Rises 19:22:45 0° 335° (NNW) 3,412 6.9 -15.4°
Reaches altitude 10° 19:25:29 10° 346° (NNW) 2,475 5.8 -15.8°
Maximum altitude 19:30:32 32° 48° (NE) 1,417 3.7 -16.5°
Enters shadow 19:33:10 22° 93° (E) 1,764 3.9 -16.8°
